"Pseudo-MPEC" for KAO001

Created 2025 Apr 30 13:31:05 UT using Find_Orb

Click here for an explanation of pseudo-MPECs

 
 Astrometry: 
     KAO001 *KC2025 04 26.79822 14 07 01.80 +01 11 57.9    ~4QLH 18.0 GVNEOCP088
     KAO001  KC2025 04 26.80253 14 07 01.80 +01 11 59.8    ~4QLH 17.7 GVNEOCP088
     KAO001  KC2025 04 26.80631 14 07 01.99 +01 11 59.8    ~4QLH 18.5 GVNEOCP088
     KAO001  KC2025 04 26.80954 14 07 01.98 +01 12 00.5    ~4QLH 18.8 GVNEOCP088
     KAO001  KC2025 04 26.81277 14 07 02.03 +01 12 01.1    ~4QLH 19.1 GVNEOCP088

Station data:
(088) Kottomia  (N29.934010 E31.827690)  Egypt.

Orbital elements:  KAO001
   Perihelion 2025 Jun 14.30670 +/- 47.4 TT =  7:21:39 (JD 2460840.80670)
Epoch 2025 Apr 27.0 TT = JDT 2460792.5   Earth MOID: 0.0521   Ma: 0.0217
M 341.88897363 +/- 25               (J2000 ecliptic)             AutoNEOCP
n   0.37491745 +/- 0.221            Peri.  179.20480 +/- 110
a   1.90478344 +/- 0.749            Node    84.35700 +/- 53
e   0.4393801 +/- 0.169             Incl.    2.74810 +/- 1.8
P   2.629/960.193d         H 21.20  G  0.15   U 11.7  SR
q 1.06785937 +/- 0.236    Q 2.74170751 +/- 1.87
From 5 observations 2025 Apr. 26 (21.0 min); mean residual 0".49
Residuals in arcseconds: 
250426 088  .28+  .35-    250426 088  .95+  .11-    250426 088  .15-  .14-    
250426 088  .89-  .66+    250426 088  .06-  .07-    

Ephemerides (geocentric):
Date (UTC) HH   RA             Dec           delta  r     elong  mag " sig PA
---- --------  ------------   ------------  ------ ------ -----  --- --------
2025 04 30 14  14 09 15.359   +01 22 02.92  .17156 1.1725 162.9 18.5  39d  90
2025 04 30 15  14 09 17.050   +01 22 07.02  .17138 1.1723 162.9 18.5  39d  90
2025 04 30 16  14 09 18.745   +01 22 11.06  .17120 1.1721 162.9 18.5  39d  90
2025 04 30 17  14 09 20.445   +01 22 15.05  .17102 1.1719 162.9 18.5  39d  90
2025 04 30 18  14 09 22.151   +01 22 18.98  .17084 1.1718 162.8 18.5  39d  90
2025 04 30 19  14 09 23.861   +01 22 22.86  .17067 1.1716 162.8 18.5  39d  90
2025 04 30 20  14 09 25.577   +01 22 26.67  .17049 1.1714 162.8 18.5  39d  90
2025 04 30 21  14 09 27.298   +01 22 30.44  .17031 1.1712 162.8 18.5  39d  90
2025 04 30 22  14 09 29.024   +01 22 34.14  .17013 1.1710 162.7 18.5  39d  90
2025 04 30 23  14 09 30.755   +01 22 37.79  .16996 1.1709 162.7 18.5  39d  90
2025 05 01 00  14 09 32.491   +01 22 41.38  .16978 1.1707 162.7 18.5  39d  90
2025 05 01 01  14 09 34.233   +01 22 44.92  .16960 1.1705 162.7 18.5  39d  90
2025 05 01 02  14 09 35.980   +01 22 48.39  .16943 1.1703 162.6 18.5  39d  90
2025 05 01 03  14 09 37.732   +01 22 51.81  .16925 1.1702 162.6 18.5  39d  90
2025 05 01 04  14 09 39.489   +01 22 55.18  .16907 1.1700 162.6 18.5  39d  90
2025 05 01 05  14 09 41.252   +01 22 58.48  .16890 1.1698 162.6 18.5  39d  90
2025 05 01 06  14 09 43.020   +01 23 01.72  .16872 1.1696 162.5 18.5  39d  90
2025 05 01 07  14 09 44.793   +01 23 04.91  .16855 1.1694 162.5 18.5  39d  90
2025 05 01 08  14 09 46.572   +01 23 08.04  .16837 1.1693 162.5 18.5  39d  90
2025 05 01 09  14 09 48.357   +01 23 11.11  .16819 1.1691 162.5 18.5  39d  90
2025 05 01 10  14 09 50.146   +01 23 14.12  .16802 1.1689 162.5 18.5  39d  90
2025 05 01 11  14 09 51.941   +01 23 17.07  .16784 1.1687 162.4 18.5  39d  90
2025 05 01 12  14 09 53.742   +01 23 19.97  .16767 1.1686 162.4 18.5  39d  90
2025 05 01 13  14 09 55.548   +01 23 22.80  .16749 1.1684 162.4 18.5  39d  90
2025 05 01 14  14 09 57.360   +01 23 25.57  .16732 1.1682 162.4 18.5  39d  90
2025 05 01 15  14 09 59.177   +01 23 28.29  .16714 1.1680 162.3 18.5  39d  90
2025 05 01 16  14 10 01.000   +01 23 30.94  .16697 1.1679 162.3 18.5  39d  90
2025 05 01 17  14 10 02.828   +01 23 33.53  .16679 1.1677 162.3 18.5  39d  90
2025 05 01 18  14 10 04.662   +01 23 36.07  .16662 1.1675 162.3 18.5  39d  90
2025 05 01 19  14 10 06.501   +01 23 38.54  .16644 1.1673 162.2 18.5  39d  90
2025 05 01 20  14 10 08.347   +01 23 40.95  .16627 1.1671 162.2 18.5  39d  90
2025 05 01 21  14 10 10.198   +01 23 43.30  .16610 1.1670 162.2 18.5  39d  90
2025 05 01 22  14 10 12.054   +01 23 45.59  .16592 1.1668 162.2 18.5  39d  90
2025 05 01 23  14 10 13.916   +01 23 47.82  .16575 1.1666 162.1 18.5  39d  90
2025 05 02 00  14 10 15.785   +01 23 49.99  .16557 1.1664 162.1 18.5  39d  90
2025 05 02 01  14 10 17.658   +01 23 52.09  .16540 1.1663 162.1 18.5  39d  90
2025 05 02 02  14 10 19.538   +01 23 54.14  .16523 1.1661 162.1 18.5  39d  90
2025 05 02 03  14 10 21.423   +01 23 56.12  .16505 1.1659 162.1 18.5  39d  90
2025 05 02 04  14 10 23.315   +01 23 58.04  .16488 1.1657 162.0 18.5  39d  90
2025 05 02 05  14 10 25.212   +01 23 59.90  .16471 1.1656 162.0 18.5  39d  90
2025 05 02 06  14 10 27.115   +01 24 01.69  .16453 1.1654 162.0 18.5  39d  90
2025 05 02 07  14 10 29.024   +01 24 03.42  .16436 1.1652 162.0 18.5  39d  90
2025 05 02 08  14 10 30.939   +01 24 05.09  .16419 1.1650 161.9 18.5  39d  90
2025 05 02 09  14 10 32.859   +01 24 06.70  .16401 1.1649 161.9 18.5  39d  90
2025 05 02 10  14 10 34.786   +01 24 08.24  .16384 1.1647 161.9 18.5  39d  90
2025 05 02 11  14 10 36.719   +01 24 09.72  .16367 1.1645 161.9 18.5  39d  90
2025 05 02 12  14 10 38.658   +01 24 11.14  .16350 1.1643 161.8 18.5  39d  90
2025 05 02 13  14 10 40.602   +01 24 12.49  .16332 1.1642 161.8 18.5  39d  90